Omidieh, Iran

11:49 PM +0330 on November 20, 2017 (GMT +0330)
Aghajari

Weather History for OIAG - May, 2013

Change the Weather History Date:

Wednesday, May 15, 2013

  Actual Average Record
Temperature  
Mean Temperature 88 °F -  
Max Temperature 102 °F - - ()
Min Temperature 73 °F - - ()
Cooling Degree Days 22    
Growing Degree Days 38 (Base 50)    
Moisture  
Dew Point 47 °F    
Average Humidity 24    
Maximum Humidity 47    
Minimum Humidity 5    
Precipitation  
Precipitation 0.00 in - - ()
Sea Level Pressure  
Sea Level Pressure 29.72 in    
Wind  
Wind Speed 5 mph ()    
Max Wind Speed 18 mph    
Max Gust Speed -    
Visibility 6.0 miles    
Events      
T = Trace of Precipitation, MM = Missing Value Source: Averaged Metar Reports

Daily Weather History Graph

Daily Weather History Graph

Search for Another Location

Airport or City:

Trip Planner

Search our weather history database for the weather conditions in past years. The results will help you decide how hot, cold, wet, or windy it might be!

Date:

Astronomy

May. 15, 2013 Rise Set
Actual Time 6:16 AM +0430 7:59 PM +0430
Civil Twilight 5:50 AM +0430 8:25 PM +0430
Nautical Twilight 5:18 AM +0430 8:57 PM +0430
Astronomical Twilight 4:44 AM +0430 9:31 PM +0430
Moon 10:28 AM +0430 (5/15) 12:12 AM +0430 (5/16)
Length of Visible Light 14h 35m
Length of Day
13h 42m
Waxing Crescent, 24% of the Moon is Illuminated
May 15
Waxing Crescent
May 18
First Quarter
May 25
Full
May 31
Last Quarter
Jun 8
New

Hourly Weather History & Observations

Time (+0430) Temp. Dew Point Humidity Pressure Visibility Wind Dir Wind Speed Gust Speed Precip Events Conditions
12:30 AM 82.4 °F 51.8 °F 35% 29.74 in - North 9.2 mph - N/A   Clear
4:30 AM 77 °F 51 °F 30% 29.72 in 6 mi Calm Calm - -  
5:30 AM 75.2 °F 51.8 °F 44% 29.71 in - Calm Calm - N/A   Clear
6:30 AM 73.4 °F 51.8 °F 47% 29.71 in - Calm Calm - N/A   Clear
8:30 AM 77.0 °F 55.4 °F 47% 29.74 in - Calm Calm - N/A   Clear
9:30 AM 84.2 °F 50.0 °F 30% 29.77 in - ESE 4.6 mph - N/A   Clear
10:30 AM 90 °F 54 °F 19% 29.78 in 6 mi Calm Calm - -  
11:30 AM 93.2 °F 50.0 °F 23% 29.77 in - Calm Calm - N/A   Clear
12:30 PM 95.0 °F 48.2 °F 20% 29.74 in - NNW 6.9 mph - N/A   Clear
2:30 PM 100.4 °F 42.8 °F 14% 29.74 in - SSW 11.5 mph - N/A   Clear
3:30 PM 100.4 °F 42.8 °F 14% 29.71 in - SSW 13.8 mph - N/A   Clear
4:17 PM 102 °F 38 °F 5% 29.70 in 6 mi SE 15.7 mph - -  
5:30 PM 102.2 °F 35.6 °F 10% 29.68 in - South 16.1 mph - N/A   Clear
6:30 PM 100.4 °F 35.6 °F 11% 29.65 in - South 18.4 mph - N/A   Clear
8:15 PM 93.2 °F 46.4 °F 20% 29.68 in - SSW 9.2 mph - N/A   Clear
8:30 PM 93.2 °F 46.4 °F 20% 29.68 in - SSW 9.2 mph - N/A   Clear
9:30 PM 91.4 °F 46.4 °F 21% 29.68 in - ESE 11.5 mph - N/A   Clear
10:15 PM 90 °F 48 °F 14% 29.71 in 6 mi SE 6.7 mph - -  
11:30 PM 87.8 °F 50.0 °F 27% 29.68 in - SE 6.9 mph - N/A   Clear